Regional Weather Roundup
Issued by NWS Cleveland, OH

Home | Current Version | Previous Version | Graphics & Text | Print | Product List | Glossary On
Versions: 1 2 3 4 5 6 7 8 9 10 11 12 13 14 15 16 17 18 19 20 21 22 23 24 25 26 27 28 29 30 31 32 33 34 35 36 37 38 39 40 41 42 43 44 45 46 47 48 49 50
000
ASUS41 KCLE 300900
RWRCLE
OHIO REGIONAL WEATHER ROUNDUP
NATIONAL WEATHER SERVICE WILMINGTON, OH
500 AM EDT SAT MAY 30 2015

NOTE: "FAIR" INDICATES FEW OR NO CLOUDS BELOW 12,000 FEET WITH NO
SIGNIFICANT WEATHER AND/OR OBSTRUCTIONS TO VISIBILITY.

OHZ001>008-015>018-024>027-034-035-043-044-301000-
   NORTHWEST OHIO

CITY           SKY/WX    TMP DP  RH WIND       PRES   REMARKS
DEFIANCE       CLEAR     69  64  84 S7        29.99S
FINDLAY        CLEAR     70  66  87 S8        30.01R
TOLEDO EXPRESS CLEAR     69  64  84 SW6       29.99R
TOLEDO EXEC    CLEAR     71  64  78 SW9       30.00R
LIMA           CLEAR     69  65  86 S8        30.03R
$$

OHZ009>014-019>023-028>033-038-089-301000-
   NORTHEAST OHIO

CITY           SKY/WX    TMP DP  RH WIND       PRES   REMARKS
CLE-HOPKINS    MOCLDY    72  63  73 S10       30.04S
CLE-LAKEFRONT  MOCLDY    74  63  68 S12G20    30.01S
CUY CO. ARPT   NOT AVBL
LORAIN-ELYRIA  MOCLDY    71  64  78 S10       30.03S
ASHTABULA      MOCLDY    71  65  81 S10       30.05S
AKRON-CANTON   MOCLDY    70  63  78 S12       30.07S
WOOSTER        NOT AVBL
MANSFIELD      PTCLDY    69  65  86 SW10      30.06S
YOUNGSTOWN     MOCLDY    69  64  84 S7        30.07S
$$

OHZ042-051>053-060>062-070>072-077>081-301000-
  SOUTHWEST OHIO

CITY           SKY/WX    TMP DP  RH WIND       PRES   REMARKS
CINC-COVINGTON MOCLDY    68  64  87 S7        30.06S
CINC-LUNKEN    MOCLDY    69  65  86 CALM      30.06S
HAMILTON       PTCLDY    68  66  93 CALM      30.06S
DAYTON         NOT AVBL
WRIGHT-PAT AFB CLEAR     69  67  92 S7        30.05S
DAYTON GENERAL CLEAR     68  66  93 S8        30.05S
WILMINGTON     PTCLDY    68  64  87 S8        30.07R
$$

OHZ036-037-039>041-045>050-054>059-063>069-073>076-082>088-301000-
  CENTRAL AND SOUTHEAST OHIO

CITY           SKY/WX    TMP DP  RH WIND       PRES   REMARKS
COLUMBUS       CLOUDY    71  65  81 S8        30.05S
OSU AIRPORT    PTCLDY    71  65  81 S8        30.05S
BOLTON FIELD   NOT AVBL
RICKENBACK AFB NOT AVBL
NEWARK         MOCLDY    71  65  81 S6        30.06S
MARION         PTCLDY    70  64  81 S10       30.05R
LANCASTER      MOCLDY    71  65  81 SE5       30.07S
ZANESVILLE     MOCLDY    68  63  84 S6        30.09R
NEW PHILLY     MOCLDY    71  64  78 VRB3      30.08S
$$


USA.gov is the U.S. government's official web portal to all federal, state and local government web resources and services.